Weather History for KJYL - August, 2013

Change the Weather History Date:

Sunday, August 25, 2013

  Actual Average (KSAV) Record (KSAV)
Temperature  
Mean Temperature 76 °F 81 °F  
Max Temperature 85 °F 90 °F 99 °F (1938)
Min Temperature 68 °F 72 °F 62 °F (1997)
Degree Days  
Heating Degree Days 0 0  
Month to date heating degree days 0  
Since 1 June heating degree days 0  
Since 1 July heating degree days 0  
Cooling Degree Days 12 16  
Month to date cooling degree days 418  
Year to date cooling degree days 1813  
Since 1 June cooling degree days 1410  
Growing Degree Days 26 (Base 50)    
Moisture  
Dew Point 63 °F    
Average Humidity 65    
Maximum Humidity 89    
Minimum Humidity 35    
Precipitation  
Precipitation 0.00 in 0.21 in 5.75 in (1995)
Month to date precipitation 5.35  
Year to date precipitation 33.16  
Sea Level Pressure  
Sea Level Pressure 30.27 in    
Wind  
Wind Speed 5 mph (ENE)    
Max Wind Speed 15 mph    
Max Gust Speed 20 mph    
Visibility 10 miles    
Events      
T = Trace of Precipitation, MM = Missing Value Source: NWS Daily Summary

Daily Weather History Graph

Daily Weather History Graph

Search for Another Location

Airport or City:

Trip Planner

Search our weather history database for the weather conditions in past years. The results will help you decide how hot, cold, wet, or windy it might be!

Date:

Astronomy

Aug. 25, 2013 Rise Set
Actual Time 6:56 AM EDT 7:59 PM EDT
Civil Twilight 6:31 AM EDT 8:24 PM EDT
Nautical Twilight 6:01 AM EDT 8:54 PM EDT
Astronomical Twilight 5:30 AM EDT 9:25 PM EDT
Moon 10:50 PM EDT (8/25) 11:37 AM EDT (8/25)
Length of Visible Light 13h 53m
Length of Day
13h 02m
Waning Gibbous, 76% of the Moon is Illuminated
Aug 25
Waning Gibbous
Aug 28
Last Quarter
Sep 5
New
Sep 12
First Quarter
Sep 19
Full

Hourly Weather History & Observations

Time (EDT) Temp. Heat Index Dew Point Humidity Pressure Visibility Wind Dir Wind Speed Gust Speed Precip Events Conditions
12:15 AM 75.6 °F - 68.9 °F 80% 30.23 in 10.0 mi East 4.6 mph - N/A   Overcast
12:35 AM 75.6 °F - 68.9 °F 80% 30.23 in 10.0 mi East 3.5 mph - N/A   Overcast
12:55 AM 75.2 °F - 68.9 °F 81% 30.24 in 10.0 mi ENE 3.5 mph - N/A   Overcast
1:15 AM 75.2 °F - 68.9 °F 81% 30.24 in 10.0 mi ENE 4.6 mph - N/A   Overcast
1:35 AM 75.2 °F - 68.5 °F 80% 30.24 in 10.0 mi East 5.8 mph - N/A   Overcast
1:55 AM 74.5 °F - 68.2 °F 81% 30.24 in 10.0 mi ENE 5.8 mph - N/A   Overcast
2:15 AM 74.7 °F - 68.0 °F 80% 30.24 in 10.0 mi East 4.6 mph - N/A   Overcast
2:35 AM 73.8 °F - 67.6 °F 81% 30.24 in 10.0 mi ENE 4.6 mph - N/A   Mostly Cloudy
2:55 AM 72.9 °F - 67.6 °F 84% 30.24 in 10.0 mi ENE 3.5 mph - N/A   Clear
3:15 AM 72.3 °F - 67.5 °F 85% 30.24 in 10.0 mi Calm Calm - N/A   Clear
3:35 AM 71.6 °F - 67.6 °F 87% 30.24 in 10.0 mi NNE 3.5 mph - N/A   Clear
3:55 AM 71.1 °F - 67.5 °F 88% 30.24 in 7.0 mi NNE 3.5 mph - N/A   Clear
4:15 AM 70.7 °F - 67.3 °F 89% 30.24 in 7.0 mi NE 3.5 mph - N/A   Clear
4:35 AM 70.5 °F - 66.9 °F 88% 30.24 in 10.0 mi NE 3.5 mph - N/A   Clear
4:55 AM 70.2 °F - 66.6 °F 88% 30.24 in 10.0 mi Calm Calm - N/A   Clear
5:15 AM 69.8 °F - 66.2 °F 88% 30.25 in 10.0 mi ENE 3.5 mph - N/A   Clear
5:35 AM 69.8 °F - 66.2 °F 88% 30.25 in 10.0 mi ENE 4.6 mph - N/A   Clear
5:55 AM 69.8 °F - 66.2 °F 88% 30.26 in 10.0 mi ENE 3.5 mph - N/A   Clear
6:15 AM 69.3 °F - 65.7 °F 88% 30.26 in 10.0 mi ENE 5.8 mph - N/A   Clear
6:35 AM 69.1 °F - 65.3 °F 88% 30.27 in 10.0 mi ENE 4.6 mph - N/A   Clear
6:55 AM 68.9 °F - 65.3 °F 88% 30.27 in 10.0 mi ENE 3.5 mph - N/A   Clear
7:15 AM 68.7 °F - 65.3 °F 89% 30.28 in 7.0 mi NE 3.5 mph - N/A   Clear
7:35 AM 68.9 °F - 65.5 °F 89% 30.28 in 10.0 mi NE 4.6 mph - N/A   Clear
7:55 AM 69.8 °F - 66.0 °F 88% 30.29 in 10.0 mi ENE 4.6 mph - N/A   Clear
8:15 AM 70.7 °F - 65.8 °F 85% 30.29 in 10.0 mi ENE 5.8 mph - N/A   Clear
8:35 AM 71.6 °F - 66.2 °F 83% 30.29 in 10.0 mi ENE 6.9 mph - N/A   Clear
8:55 AM 73.0 °F - 66.4 °F 80% 30.30 in 10.0 mi East 9.2 mph - N/A   Clear
9:15 AM 74.1 °F - 66.7 °F 78% 30.30 in 10.0 mi ENE 9.2 mph - N/A   Clear
9:35 AM 75.2 °F - 67.3 °F 76% 30.31 in 10.0 mi NE 8.1 mph - N/A   Clear
9:55 AM 76.3 °F - 67.1 °F 73% 30.31 in 10.0 mi ENE 6.9 mph - N/A   Clear
10:15 AM 77.5 °F - 67.3 °F 71% 30.32 in 10.0 mi ENE 8.1 mph - N/A   Clear
10:35 AM 78.4 °F - 66.2 °F 66% 30.32 in 10.0 mi ENE 9.2 mph 16.1 mph N/A   Clear
10:55 AM 79.5 °F - 63.7 °F 58% 30.33 in 10.0 mi NE 9.2 mph - N/A   Clear
11:15 AM 80.2 °F 81.2 °F 61.3 °F 52% 30.32 in 10.0 mi ENE 9.2 mph - N/A   Clear
11:35 AM 81.0 °F 81.7 °F 60.6 °F 50% 30.32 in 10.0 mi NE 9.2 mph - N/A   Clear
11:55 AM 81.0 °F 81.5 °F 59.7 °F 48% 30.32 in 10.0 mi ENE 8.1 mph - N/A   Clear
12:15 PM 81.5 °F 82.0 °F 60.3 °F 48% 30.31 in 10.0 mi ENE 10.4 mph - N/A   Clear
12:35 PM 82.4 °F 82.9 °F 60.8 °F 48% 30.31 in 10.0 mi NE 11.5 mph 16.1 mph N/A   Clear
12:55 PM 82.6 °F 82.6 °F 59.5 °F 45% 30.30 in 10.0 mi East 10.4 mph 19.6 mph N/A   Clear
1:15 PM 83.3 °F 83.2 °F 59.0 °F 44% 30.30 in 10.0 mi East 10.4 mph 17.3 mph N/A   Clear
1:35 PM 83.7 °F 83.1 °F 57.9 °F 41% 30.29 in 10.0 mi ENE 15.0 mph 19.6 mph N/A   Clear
1:55 PM 84.2 °F 83.3 °F 56.5 °F 39% 30.28 in 10.0 mi ENE 12.7 mph 19.6 mph N/A   Clear
2:15 PM 84.4 °F 83.4 °F 55.9 °F 38% 30.27 in 10.0 mi ENE 9.2 mph - N/A   Clear
2:35 PM 84.7 °F 83.3 °F 54.1 °F 35% 30.27 in 10.0 mi ENE 9.2 mph - N/A   Clear
2:55 PM 85.6 °F 84.3 °F 55.8 °F 36% 30.26 in 10.0 mi East 4.6 mph - N/A   Clear
3:15 PM 85.3 °F 84.1 °F 56.5 °F 37% 30.25 in 10.0 mi East 9.2 mph - N/A   Clear
3:35 PM 85.3 °F 83.9 °F 55.4 °F 36% 30.25 in 10.0 mi NE 10.4 mph 16.1 mph N/A   Clear
3:55 PM 85.3 °F 84.1 °F 56.3 °F 37% 30.25 in 10.0 mi East 8.1 mph 16.1 mph N/A   Clear
4:15 PM 85.5 °F 84.5 °F 57.4 °F 38% 30.25 in 10.0 mi East 6.9 mph - N/A   Clear
4:35 PM 85.1 °F 84.4 °F 58.5 °F 40% 30.25 in 10.0 mi East 10.4 mph - N/A   Scattered Clouds
4:55 PM 85.3 °F 84.1 °F 55.9 °F 37% 30.24 in 10.0 mi East 5.8 mph - N/A   Clear
5:15 PM 84.9 °F 83.9 °F 56.7 °F 38% 30.24 in 10.0 mi East 8.1 mph - N/A   Clear
5:35 PM 84.7 °F 83.6 °F 56.1 °F 37% 30.24 in 10.0 mi East 6.9 mph - N/A   Clear
5:55 PM 84.2 °F 83.3 °F 56.7 °F 39% 30.24 in 10.0 mi East 5.8 mph - N/A   Clear
6:15 PM 84.2 °F 83.3 °F 56.5 °F 39% 30.24 in 10.0 mi East 6.9 mph - N/A   Clear
6:35 PM 84.2 °F 83.5 °F 57.7 °F 40% 30.24 in 10.0 mi ENE 5.8 mph - N/A   Clear
6:55 PM 83.3 °F 82.9 °F 58.1 °F 42% 30.24 in 10.0 mi East 5.8 mph - N/A   Clear
7:15 PM 82.0 °F 82.2 °F 59.2 °F 46% 30.24 in 10.0 mi Calm Calm - N/A   Clear
7:35 PM 80.1 °F 81.0 °F 60.6 °F 51% 30.25 in 10.0 mi East 3.5 mph - N/A   Clear
7:55 PM 77.7 °F - 61.3 °F 57% 30.26 in 10.0 mi ENE 3.5 mph - N/A   Clear
8:15 PM 75.6 °F - 62.2 °F 63% 30.27 in 10.0 mi ENE 3.5 mph - N/A   Clear
8:35 PM 74.3 °F - 62.4 °F 66% 30.27 in 10.0 mi ENE 3.5 mph - N/A   Clear
8:55 PM 73.2 °F - 62.6 °F 69% 30.27 in 10.0 mi ENE 3.5 mph - N/A   Clear
9:15 PM 72.9 °F - 62.1 °F 69% 30.27 in 10.0 mi ENE 3.5 mph - N/A   Clear
9:35 PM 71.8 °F - 63.0 °F 74% 30.28 in 10.0 mi NE 3.5 mph - N/A   Clear
9:55 PM 72.5 °F - 62.1 °F 70% 30.28 in 10.0 mi East 4.6 mph - N/A   Scattered Clouds
10:15 PM 73.4 °F - 61.9 °F 67% 30.29 in 10.0 mi ENE 4.6 mph - N/A   Mostly Cloudy
10:35 PM 74.3 °F - 61.7 °F 65% 30.29 in 10.0 mi ENE 3.5 mph - N/A   Overcast
10:55 PM 73.4 °F - 62.1 °F 68% 30.30 in 10.0 mi ENE 4.6 mph - N/A   Overcast
11:15 PM 73.6 °F - 61.7 °F 66% 30.30 in 10.0 mi ENE 4.6 mph - N/A   Overcast
11:35 PM 72.3 °F - 62.1 °F 70% 30.29 in 10.0 mi ENE 3.5 mph - N/A   Scattered Clouds
11:55 PM 71.2 °F - 62.6 °F 74% 30.28 in 10.0 mi ENE 3.5 mph - N/A   Clear